FW3241 Weather Reports


time (UTC)temp
C
wind
direction
speed
KPH
gust
KPH
rain 1hr
cm
rain 24hr
cm
rain mn
cm
humidity
%
barometer
mb
20260904094508 20 167 0.0 0.0 0.00 0.03 0.00 67 1017.6
20260904093005 20 167 0.0 0.0 0.00 0.03 0.00 68 1017.5
20260904091506 20 167 0.0 0.0 0.00 0.03 0.00 68 1017.5
20260904090013 20 167 0.0 0.0 0.00 0.03 0.00 68 1017.3
20260904084505 20 167 0.0 0.0 0.00 0.03 0.00 68 1017.5
20260904083004 20 167 0.0 0.0 0.00 0.03 0.00 69 1017.3
20260904081505 21 167 0.0 0.0 0.00 0.03 0.00 69 1017.2
20260904080003 21 167 0.0 0.0 0.00 0.03 0.00 69 1017.2
20260904074609 21 167 0.0 0.0 0.00 0.03 0.00 68 1017.2
20260904073059 21 167 0.0 0.0 0.00 0.03 0.00 68 1017.1
20260904071559 21 167 0.0 0.0 0.00 0.03 0.00 68 1017.2
20260904070056 21 167 0.0 0.0 0.00 0.03 0.00 67 1017.4
20260904064603 21 167 0.0 0.0 0.00 0.03 0.00 67 1017.6
20260904063052 21 167 0.0 1.6 0.00 0.03 0.00 67 1017.6
20260904061550 21 167 0.0 0.0 0.00 0.03 0.00 67 1018.0
20260904060112 21 167 0.0 0.0 0.00 0.03 0.00 66 1018.2
20260904054546 21 167 0.0 0.0 0.00 0.03 0.00 66 1018.4
20260904053134 21 167 0.0 0.0 0.00 0.03 0.00 66 1018.6
20260904051603 21 167 0.0 0.0 0.00 0.03 0.00 66 1018.8
20260904050040 22 167 0.0 0.0 0.00 0.03 0.00 64 1018.9
20260904044556 22 167 0.0 0.0 0.00 0.03 0.00 64 1018.9
20260904043039 22 167 0.0 0.0 0.00 0.03 0.00 64 1019.0
20260904041539 22 167 0.0 0.0 0.00 0.03 0.00 64 1019.1
20260904040046 22 167 0.0 0.0 0.00 0.03 0.00 65 1019.1
20260904034536 22 167 0.0 0.0 0.00 0.03 0.03 65 1019.0
20260904033042 22 167 0.0 1.6 0.00 0.03 0.03 64 1019.1
20260904031535 22 167 0.0 4.8 0.00 0.03 0.03 64 1019.2
20260904030034 22 167 0.0 1.6 0.00 0.03 0.03 64 1019.4
20260904024535 22 167 0.0 0.0 0.00 0.03 0.03 62 1019.3
20260904023133 22 167 0.0 0.0 0.00 0.03 0.03 62 1019.4
20260904021534 22 167 0.0 0.0 0.00 0.03 0.03 61 1019.5
20260904020037 22 167 0.0 0.0 0.00 0.03 0.03 63 1019.3
20260904014532 22 167 0.0 1.6 0.00 0.03 0.03 63 1019.1
20260904013034 22 167 0.0 3.2 0.00 0.03 0.03 63 1018.9
20260904011534 22 167 0.0 3.2 0.00 0.03 0.03 63 1018.7
20260904010030 22 167 0.0 1.6 0.00 0.03 0.03 63 1018.4
20260904004530 23 167 0.0 1.6 0.00 0.03 0.03 62 1018.3
20260904003029 23 167 0.0 0.0 0.00 0.03 0.03 62 1018.1
20260904001531 23 167 0.0 0.0 0.00 0.03 0.03 61 1017.8
20260904000028 23 167 0.0 3.2 0.00 0.03 0.03 61 1017.6
20260903234529 23 167 0.0 1.6 0.00 0.03 0.03 60 1017.3
20260903233027 24 167 0.0 0.0 0.00 0.03 0.03 59 1017.4
20260903231532 24 167 0.0 0.0 0.00 0.03 0.03 58 1017.2
20260903230026 24 167 0.0 0.0 0.00 0.03 0.03 58 1017.4
20260903224537 25 167 0.0 0.0 0.00 0.03 0.03 57 1017.2
20260903223030 25 167 0.0 0.0 0.00 0.03 0.03 56 1017.4
20260903221521 25 167 0.0 0.0 0.00 0.03 0.03 56 1017.6
20260903220021 25 167 1.6 4.8 0.00 0.03 0.03 53 1017.6
20260903214520 25 167 0.0 3.2 0.00 0.03 0.03 50 1017.7
20260903213037 26 167 1.6 3.2 0.00 0.03 0.03 51 1017.7
20260903211518 26 167 1.6 4.8 0.00 0.03 0.03 50 1017.6
20260903210017 26 167 0.0 1.6 0.00 0.03 0.03 52 1017.7
20260903204516 26 167 0.0 3.2 0.00 0.03 0.03 50 1017.7
20260903203025 26 167 0.0 3.2 0.00 0.03 0.03 49 1017.8
20260903201514 26 167 0.0 1.6 0.00 0.03 0.03 50 1018.1
20260903200014 26 167 0.0 3.2 0.00 0.03 0.03 52 1018.2
20260903194517 26 167 0.0 3.2 0.00 0.03 0.03 51 1018.2
20260903193008 26 167 0.0 4.8 0.00 0.03 0.03 47 1018.2
20260903191507 26 167 0.0 3.2 0.00 0.03 0.03 48 1018.3
20260903190005 26 167 0.0 3.2 0.00 0.03 0.03 52 1018.6
20260903184502 26 167 0.0 3.2 0.00 0.03 0.03 50 1018.6
20260903183110 26 167 0.0 3.2 0.00 0.03 0.03 55 1018.7
20260903181600 26 167 0.0 1.6 0.00 0.03 0.03 55 1018.9
20260903180100 26 167 0.0 1.6 0.00 0.03 0.03 58 1018.9
20260903174556 25 167 0.0 1.6 0.00 0.03 0.03 58 1019.0
20260903173053 25 167 0.0 0.0 0.00 0.03 0.03 59 1019.2
20260903171558 24 167 0.0 1.6 0.00 0.03 0.03 61 1019.4
20260903170058 23 167 0.0 0.0 0.00 0.03 0.03 63 1019.7